Miscellaneous Local Product
Issued by NWS North Platte, NE

Home | Current Version | Previous Version | Graphics & Text | Print | Product List | Glossary On
Versions: 1 2 3 4 5 6 7 8 9 10 11 12 13 14 15 16 17 18 19 20 21 22 23 24 25 26 27 28 29 30 31 32 33 34 35 36 37 38 39 40 41 42 43 44 45 46 47 48 49 50
000
AXUS43 KLBF 280510
MISLBF


WESTERN AND NORTH CENTRAL NEBRASKA HOURLY WEATHER ROUNDUP
NATIONAL WEATHER SERVICE NORTH PLATTE NE
1100 PM CST FRI FEB 27 2015

***STATIONS NOT REPORTING VARIABLES SUCH AS SKY/WEATHER OR
PRESSURE ARE PROVIDED BY THE NEBRASKA DEPARTMENT OF
ROADS...RAWS...AND APRS NETWORKS...AND ARE NOT UNDER
NATIONAL WEATHER SERVICE QUALITY CONTROL***

...OBSERVATIONS IN AND NEAR THE EASTERN PANHANDLE OF NEBRASKA...

CITY           SKY/WX    TMP DP  RH WIND       PRES   REMARKS
PINE RIDGE     MOCLDY    18   7  62 S13G23    30.06R WCI   5
CHADRON        CLEAR     18   7  62 S12       30.04S WCI   5
ALLIANCE       MOCLDY    15   6  67 S21       30.03S WCI  -2
SIDNEY         PTCLDY     8   3  80 S12       30.03F WCI  -7
WHITECLAY        N/A     18   7  61 S15         N/A  WCI   4
CRESCENT LAKE    N/A     13   5  69 S13G22      N/A  WCI  -1
LISCO            N/A     16   6  63 E14         N/A  WCI   2
BIG SPRINGS      N/A     12   8  83 S6          N/A  WCI   3
LEWELLEN         N/A     10   2  72 S9          N/A  WCI  -3
$$

...OBSERVATIONS IN NORTH CENTRAL NEBRASKA...

CITY           SKY/WX    TMP DP  RH WIND       PRES   REMARKS
VALENTINE      MOCLDY    14   5  67 S8        30.19S WCI   3
THEDFORD       CLOUDY    19   7  59 S14G24    30.19F WCI   5
AINSWORTH      CLEAR     13   1  59 S14       30.21F WCI  -2
O`NEILL        CLEAR     13   1  58 S12       30.32F WCI  -1
ORD            CLEAR     11  -3  53 S8        30.33F WCI  -1
BROKEN BOW     CLEAR     12  -1  56 S12G22    30.28F WCI  -2
BROWNLEE         N/A     14   2  60 S14         N/A  WCI  -1
SPRINGVIEW       N/A     15   0  52 MISG        N/A
BREWSTER         N/A     19   6  56 S13         N/A  WCI   6
ROSE             N/A     21  10  63 E9          N/A  WCI  11
NEWPORT          N/A     20   7  56 S9          N/A  WCI  10
SARGENT          N/A     12   1  61 S3G12       N/A
COMSTOCK         N/A     13   0  57 S10         N/A  WCI   0
CHAMBERS         N/A     10 -13  35 S6G15       N/A  WCI   0
EWING            N/A      8   1  73 CALM        N/A
$$

...OBSERVATIONS IN SOUTHWEST NEBRASKA AND FAR NORTHEAST COLORADO...

CITY           SKY/WX    TMP DP  RH WIND       PRES   REMARKS
WRAY           CLOUDY    13   8  81 S12       30.14S WCI  -1
IMPERIAL         N/A     11   6  81 SE9       30.17F WCI  -2
OGALLALA       PTCLDY    12   7  79 S9        30.16F WCI   0
NORTH PLATTE   CLOUDY    17   5  59 S12       30.23S WCI   4
MCCOOK         CLOUDY    18   6  59 S9        30.27F WCI   7
LEXINGTON      PTCLDY    12   5  74 S9        30.30F WCI  -1
PAXTON           N/A     14   7  73 S10         N/A  WCI   1
BRADY            N/A     16   6  63 CALM        N/A
GOTHENBURG       N/A     17   6  63 S9          N/A  WCI   6
CALLAWAY         N/A     13   6  72 S12         N/A  WCI  -1
$$

...NORTH PLATTE AREA...

CITY           SKY/WX    TMP DP  RH WIND       PRES   REMARKS
AIRPORT        CLOUDY    17   5  59 S12       30.23S WCI   4
$$

...SOME WEATHER OBSERVATIONS FROM AROUND THE REGION...

CITY           SKY/WX    TMP DP  RH WIND       PRES   REMARKS
DENVER         MOCLDY     8   2  76 S6        29.91F WCI  -2
LARAMIE        PTCLDY     4  -1  80 S8        29.76R WCI  -9
CHEYENNE       CLOUDY     8   4  83 S16       29.84F WCI -10
SCOTTSBLUFF    CLOUDY    15   7  70 SE14      30.01S WCI   0
RAPID CITY     PTCLDY    14   7  73 S12       30.02S WCI   0
PIERRE         CLEAR     14  -2  49 SE10      30.21S WCI   1
WINNER         FAIR      16  -3  43 S14       30.23S WCI   2
SIOUX FALLS    CLEAR      7  -1  70 S13       30.42F WCI  -9
OMAHA          CLEAR     10   2  69 SE6       30.53F WCI   0
GRAND ISLAND   PTCLDY    12   1  61 S9        30.40F WCI   0
KANSAS CITY    CLOUDY    16   5  62 E10       30.54F WCI   4
WICHITA        FLURRIES  16  10  77 SE10      30.47F WCI   4
HAYS           CLOUDY    14   0  52 S10       30.37F WCI   1
LIBERAL        CLOUDY    12   7  79 E10       30.27S WCI  -1
GOODLAND       FLURRIES  11   7  84 S16       30.16S WCI  -6
$$



USA.gov is the U.S. government's official web portal to all federal, state and local government web resources and services.